User: anonymous   Login
Location: West Cummington
(42.4920°N, 72.9680°W)
Time: 10:42:22
(UTC-04:00)
Language:

Cosmos 841 Rocket - Orbit

View from above orbital plane
View from above orbital plane
View from above satellite
View from above satellite

Ground track
Ground track

The orbit data is extracted from the following two-line orbital elements,

1  9023U 76069B   17115.78407144 +.00000060 +00000-0 +27653-4 0  9995
2  9023 074.0438 193.4808 0017519 008.0599 352.0834 14.39540897137285
Epoch (UTC): 25 April 2017 18:49:03
Eccentricity: 0.0017519
inclination: 74.0438°
perigee height: 747 km
apogee height: 772 km
right ascension of ascending node: 193.4808°
argument of perigee: 8.0599°
revolutions per day: 14.39540897
mean anomaly at epoch: 352.0834°
orbit number at epoch: 13728

The dashed part of the orbit path shows where the satellite is in the earth's shadow,  

DLR